KUIPER-00158

Last updated on Mon Oct 20 2025 00:02:06 GMT+0000 (Coordinated Universal Time)

1 65776U 25217Q 25292.32336109 .00055223 00000+0 15500-2 0 9994 2 65776 51.8707 327.5416 0005216 171.1150 188.9929 15.36008452 3675
UTC large
Height (km)
Speed (km/s)
/
Latitude / Longitude
Inclination (degrees)
Orbital Period (minutes)
Azimuth
Elevation
Range (km)
Doppler Factor

Next 0 passes for location: London (51.5072 / 0.1276)

Sorry there are no passes over London.